Location: Fort Worth, Tx
(32.7431°N, 97.3695°W)
Time: 10:33:42
(UTC-04:00)

Explorer 11/Cluster Stage 4 - Pass Details

Date: 02 March 2024
Orbit: 465 x 1219 km, 28.8° (Epoch: 24 April)

Event Time Altitude Azimuth Distance (km) Brightness Sun altitude
Rises 21:20:01 0° 209° (SSW) 3,405 10.1 -24.3°
Reaches altitude 10° 21:23:08 10° 192° (SSW) 2,613 9.3 -24.9°
Enters shadow 21:25:41 17° 169° (S) 2,227 8.7 -25.5°
